Regional Weather Roundup
Issued by NWS

Home | Current Version | Previous Version | Graphics & Text | Print | Product List | Glossary On
Versions: 1 2 3 4 5 6 7 8 9 10 11 12 13 14 15 16 17 18 19 20 21 22 23 24 25 26 27 28 29 30 31 32 33 34 35 36 37 38 39 40 41 42 43 44 45 46 47 48 49 50
617
ASUS45 KBOI 221410
RWRID

IDAHO REGIONAL WEATHER ROUNDUP
NATIONAL WEATHER SERVICE BOISE ID
700 AM MST WED FEB 22 2017

NOTE: "FAIR" INDICATES FEW OR NO CLOUDS BELOW 12000 FEET
WITH NO SIGNIFICANT WEATHER AND/OR OBSTRUCTIONS TO VISIBILITY

IDZ012-014-221500-
SOUTHWEST IDAHO


CITY           SKY/WX    TMP DP  RH WIND       PRES   REMARKS
BOISE          PTCLDY    31  26  82 E3        30.01S
CALDWELL       PTCLDY    30  27  88 N3        30.03S
MOUNTAIN HOME  MOCLDY    30  30 100 E3        30.00F
$$

IDZ016-017-221500-
SOUTHCENTRAL IDAHO


CITY           SKY/WX    TMP DP  RH WIND       PRES   REMARKS
BURLEY         CLEAR     31  24  75 S3        29.97F
JEROME           N/A    N/A N/A N/A MISG      29.99F
TWIN FALLS     PTCLDY    27  22  81 S6        29.98F WCI  20
$$

IDZ019>023-221500-
SOUTHEAST IDAHO


CITY           SKY/WX    TMP DP  RH WIND       PRES   REMARKS
IDAHO FALLS    PTCLDY    29  27  92 SW18      29.96F WCI  16
POCATELLO      PTCLDY    31  25  78 SW8       29.99F WCI  23
REXBURG        MOCLDY    29  25  85 SW8       29.96R WCI  21
$$

IDZ006-010-011-018-031-032-221500-
CENTRAL IDAHO MOUNTAINS


CITY           SKY/WX    TMP DP  RH WIND       PRES   REMARKS
MCCALL         MOCLDY    23  21  92 SW3       29.93S
HAILEY         PTCLDY    18  16  93 W9        29.98F WCI   6
STANLEY          N/A     13  11  92 S3        29.93F
SALMON         CLOUDY    30  28  93 CALM      29.94F
CHALLIS        CLOUDY    25  17  72 CALM      29.93S
$$

IDZ002-004-006-007-026-221500-
NORTHERN IDAHO


CITY           SKY/WX    TMP DP  RH WIND       PRES   REMARKS
LEWISTON       CLOUDY    35  33  92 CALM      30.06S FOG
LOWELL           N/A     32  31  96 CALM      30.07S
COEUR D`ALENE  MIX PCPN  32  32 100 CALM      30.03R FOG
MULLAN PASS    LGT SNOW  24  22  91 CALM      29.87S FOG
$$




USA.gov is the U.S. government's official web portal to all federal, state and local government web resources and services.